Погода в Донгхое

Вьетнам     17°28′04″N   106°37′21″E
темп.,
°C
ветер,
м/с
пор.,
м/с
влажн.,
%
обл.,
%
осадки,
мм/ч
давл.,
гПа
погр.,
м
17 августа, ср
ср1701:00+25зюз1286100 0.0 100537
04:00+25юз2485100 0.0 1006212
07:00+26зюз2578100 0.0 1006378
10:00+31зюз1456100 0.0 10061220
13:00+35з1344100 0.0 10041972
16:00+33юз344999 0.0 10021360
19:00+28ююз36705 0.0 1004157
22:00+27ююз377682 0.0 1006315
18 августа, чт
чт1801:00+26юз3676100 0.0 1005326
04:00+25юз3578100 0.0 1004255
07:00+27юз267110 0.0 1005507
10:00+33юз245117 0.0 10051233
13:00+35юз454345 0.0 10031767
16:00+34юз454713 0.0 10011534
19:00+29ююз47675 0.0 1003317
22:00+27юз25755 0.0 1005199
19 августа, пт
пт1901:00+26зюз23776 0.0 1003147
04:00+26юз1376100 0.0 1002134
07:00+28юз1370100 0.0 1004297
10:00+34зюз244774 0.0 10031250
13:00+36сз2342100 0.0 10012294
16:00+32св225810 0.1 1001757
19:00+27ююв118321 0.6 100329
22:00+25юз2291100 0.8 100443
20 августа, сб
сб2001:00+25юз2290100 1.1 100251
04:00+24юз2393100 0.6 100268
07:00+25зюз2390100 0.6 1003146
10:00+26юз1384100 0.0 1003259
13:00+32з2356100 0.3 10011101
16:00+31юв016392 1.2 1000935
19:00+26ююз1188100 2.8 100127
22:00+25юз239138 1.4 100265
21 августа, вс
вс2101:00+24юз239479 2.5 100177
04:00+23юз2293100 0.2 100075
07:00+25юз1289100 0.2 1002156
10:00+29юз366899 0.1 1003960
13:00+31ююз455899 0.1 10011283
16:00+30ююз4561100 0.1 1000954
19:00+27ююз3676100 0.1 1002378
22:00+25ююз2388100 0.4 1004110